GW5397 Weather Reports


time (UTC)temp
C
wind
direction
speed
KPH
gust
KPH
rain 1hr
cm
rain 24hr
cm
rain mn
cm
humidity
%
barometer
mb
20260906214719 31 155 1.6 3.2 0.00 0.00 0.00 36 1021.4
20260906214215 31 155 1.6 3.2 0.00 0.00 0.00 36 1021.6
20260906213713 31 155 1.6 3.2 0.00 0.00 0.00 35 1021.6
20260906213208 31 155 0.0 0.0 0.00 0.00 0.00 35 1021.7
20260906212705 31 155 1.6 4.8 0.00 0.00 0.00 35 1021.6
20260906212201 31 155 0.0 1.6 0.00 0.00 0.00 35 1021.5
20260906211700 31 155 0.0 1.6 0.00 0.00 0.00 36 1021.9
20260906211155 31 155 0.0 0.0 0.00 0.00 0.00 36 1021.6
20260906210651 32 155 1.6 3.2 0.00 0.00 0.00 37 1021.7
20260906210151 31 155 0.0 0.0 0.00 0.00 0.00 36 1021.7
20260906205647 31 155 0.0 1.6 0.00 0.00 0.00 37 1021.9
20260906205143 31 154 0.0 0.0 0.00 0.00 0.00 37 1022.1
20260906204642 31 154 0.0 1.6 0.00 0.00 0.00 37 1022.1
20260906204137 31 154 0.0 1.6 0.00 0.00 0.00 38 1022.1
20260906203638 31 154 1.6 3.2 0.00 0.00 0.00 37 1022.4
20260906203138 31 155 0.0 1.6 0.00 0.00 0.00 38 1022.4
20260906202635 31 155 0.0 0.0 0.00 0.00 0.00 38 1022.2
20260906202133 31 154 0.0 1.6 0.00 0.00 0.00 38 1022.6
20260906201629 31 154 0.0 0.0 0.00 0.00 0.00 39 1022.5
20260906201128 31 154 0.0 0.0 0.00 0.00 0.00 38 1022.5
20260906200625 31 154 3.2 8.0 0.00 0.00 0.00 37 1022.5
20260906200120 31 154 1.6 1.6 0.00 0.00 0.00 36 1022.7
20260906195615 31 154 0.0 0.0 0.00 0.00 0.00 36 1022.7
20260906195112 31 154 0.0 0.0 0.00 0.00 0.00 36 1022.6
20260906194607 31 154 0.0 0.0 0.00 0.00 0.00 37 1022.7
20260906194103 31 154 4.8 11.3 0.00 0.00 0.00 37 1023.0
20260906193602 30 154 0.0 1.6 0.00 0.00 0.00 35 1023.2
20260906193058 30 154 3.2 4.8 0.00 0.00 0.00 36 1023.3
20260906192553 30 154 0.0 0.0 0.00 0.00 0.00 38 1023.2
20260906192052 30 154 1.6 3.2 0.00 0.00 0.00 36 1023.2
20260906191548 29 154 0.0 1.6 0.00 0.00 0.00 38 1023.6
20260906191047 30 154 0.0 0.0 0.00 0.00 0.00 38 1023.2
20260906190546 30 154 0.0 1.6 0.00 0.00 0.00 36 1023.4
20260906190041 30 154 0.0 1.6 0.00 0.00 0.00 38 1023.6
20260906185540 30 154 0.0 0.0 0.00 0.00 0.00 37 1023.2
20260906185039 30 154 0.0 1.6 0.00 0.00 0.00 36 1023.7
20260906184534 30 154 0.0 1.6 0.00 0.00 0.00 37 1023.8
20260906184030 30 154 3.2 3.2 0.00 0.00 0.00 37 1024.0
20260906183526 30 154 0.0 1.6 0.00 0.00 0.00 37 1024.2
20260906183021 30 154 0.0 0.0 0.00 0.00 0.00 36 1023.9
20260906182516 29 154 0.0 1.6 0.00 0.00 0.00 38 1024.0
20260906182012 28 154 0.0 0.0 0.00 0.00 0.00 39 1024.3
20260906181508 29 154 0.0 0.0 0.00 0.00 0.00 38 1024.3
20260906181003 28 154 0.0 1.6 0.00 0.00 0.00 38 1024.4
20260906180458 28 154 0.0 0.0 0.00 0.00 0.00 39 1024.5
20260906175956 28 154 1.6 1.6 0.00 0.00 0.00 39 1024.8
20260906175451 28 154 0.0 1.6 0.00 0.00 0.00 40 1024.9
20260906174950 28 154 0.0 0.0 0.00 0.00 0.00 39 1024.8
20260906174449 28 154 0.0 0.0 0.00 0.00 0.00 40 1024.9
20260906173944 28 154 0.0 0.0 0.00 0.00 0.00 39 1024.9
20260906173439 29 154 0.0 0.0 0.00 0.00 0.00 38 1024.9
20260906172939 27 154 0.0 0.0 0.00 0.00 0.00 41 1025.0
20260906172435 27 154 1.6 3.2 0.00 0.00 0.00 42 1025.3
20260906171930 27 154 0.0 0.0 0.00 0.00 0.00 40 1025.4
20260906171425 27 154 0.0 0.0 0.00 0.00 0.00 39 1025.1
20260906170921 27 154 0.0 0.0 0.00 0.00 0.00 40 1025.4
20260906170417 27 155 0.0 0.0 0.00 0.00 0.00 39 1025.4
20260906165913 27 154 0.0 0.0 0.00 0.00 0.00 38 1025.5
20260906165412 27 154 0.0 0.0 0.00 0.00 0.00 39 1025.5
20260906164907 27 155 0.0 0.0 0.00 0.00 0.00 38 1025.4
20260906164406 27 154 0.0 0.0 0.00 0.00 0.00 37 1025.4
20260906163902 27 154 0.0 1.6 0.00 0.00 0.00 38 1025.4
20260906163358 27 154 0.0 0.0 0.00 0.00 0.00 38 1025.5
20260906162856 27 154 0.0 0.0 0.00 0.00 0.00 39 1025.4
20260906162355 27 154 0.0 0.0 0.00 0.00 0.00 41 1025.4
20260906161850 26 154 0.0 0.0 0.00 0.00 0.00 40 1025.5
20260906161349 26 154 0.0 0.0 0.00 0.00 0.00 42 1025.5
20260906160849 26 154 0.0 0.0 0.00 0.00 0.00 40 1025.4
20260906160342 26 154 0.0 0.0 0.00 0.00 0.00 41 1025.3
20260906155841 25 154 0.0 0.0 0.00 0.00 0.00 41 1025.5
20260906155334 25 154 1.6 3.2 0.00 0.00 0.00 42 1025.5
20260906154831 25 154 0.0 0.0 0.00 0.00 0.00 43 1025.5
20260906154325 25 154 0.0 0.0 0.00 0.00 0.00 43 1025.3
20260906153824 26 154 0.0 0.0 0.00 0.00 0.00 44 1025.3
20260906153324 26 154 0.0 0.0 0.00 0.00 0.00 43 1025.1
20260906152819 25 154 0.0 0.0 0.00 0.00 0.00 43 1025.1
20260906152314 25 154 0.0 0.0 0.00 0.00 0.00 44 1025.1
20260906151813 25 154 0.0 0.0 0.00 0.00 0.00 44 1025.5
20260906151309 25 154 0.0 0.0 0.00 0.00 0.00 45 1025.1
20260906150804 24 154 0.0 0.0 0.00 0.00 0.00 45 1025.1
20260906150300 23 154 0.0 0.0 0.00 0.00 0.00 46 1024.9
20260906145759 23 155 0.0 0.0 0.00 0.00 0.00 46 1025.1
20260906145257 23 155 0.0 1.6 0.00 0.00 0.00 47 1025.0
20260906144753 23 155 0.0 0.0 0.00 0.00 0.00 47 1024.9
20260906144248 22 155 0.0 0.0 0.00 0.00 0.00 48 1025.0
20260906143747 23 155 0.0 0.0 0.00 0.00 0.00 49 1025.1
20260906143244 23 155 0.0 0.0 0.00 0.00 0.00 49 1024.9
20260906142744 22 155 0.0 0.0 0.00 0.00 0.00 47 1025.4
20260906142239 22 155 0.0 0.0 0.00 0.00 0.00 47 1024.9
20260906141738 22 155 0.0 0.0 0.00 0.00 0.00 48 1024.5
20260906141233 22 155 0.0 0.0 0.00 0.00 0.00 51 1024.9
20260906140732 21 155 0.0 0.0 0.00 0.00 0.00 51 1025.0
20260906140227 21 155 0.0 0.0 0.00 0.00 0.00 54 1025.0
20260906135724 20 155 0.0 0.0 0.00 0.00 0.00 55 1025.4
20260906135220 19 156 0.0 0.0 0.00 0.00 0.00 58 1024.7
20260906134716 18 156 0.0 0.0 0.00 0.00 0.00 59 1024.8
20260906134211 18 156 0.0 0.0 0.00 0.00 0.00 61 1024.7
20260906133706 18 156 0.0 0.0 0.00 0.00 0.00 63 1024.7
20260906133201 17 156 0.0 0.0 0.00 0.00 0.00 65 1024.7
20260906132657 17 156 0.0 0.0 0.00 0.00 0.00 68 1024.7
20260906132152 17 156 0.0 0.0 0.00 0.00 0.00 67 1024.4
20260906131648 17 156 0.0 0.0 0.00 0.00 0.00 65 1024.7
20260906131142 17 156 0.0 0.0 0.00 0.00 0.00 65 1024.4
20260906130638 16 156 0.0 0.0 0.00 0.00 0.00 63 1024.7
20260906130133 17 156 0.0 0.0 0.00 0.00 0.00 64 1024.4
20260906125631 16 155 0.0 0.0 0.00 0.00 0.00 63 1024.5
20260906125129 16 155 0.0 0.0 0.00 0.00 0.00 66 1024.4
20260906124625 16 155 0.0 0.0 0.00 0.00 0.00 67 1024.5
20260906124120 16 155 0.0 0.0 0.00 0.00 0.00 66 1024.4
20260906123620 16 155 0.0 0.0 0.00 0.00 0.00 67 1024.4
20260906123115 16 155 0.0 0.0 0.00 0.00 0.00 66 1024.7
20260906122614 15 155 0.0 0.0 0.00 0.00 0.00 67 1024.3
20260906122110 15 155 0.0 0.0 0.00 0.00 0.00 67 1024.5
20260906121606 15 155 0.0 0.0 0.00 0.00 0.00 69 1024.7
20260906121102 15 156 0.0 0.0 0.00 0.00 0.00 69 1024.4
20260906120556 16 156 0.0 0.0 0.00 0.00 0.00 68 1024.4
20260906120054 15 156 0.0 0.0 0.00 0.00 0.00 68 1024.3
20260906115554 16 156 0.0 0.0 0.00 0.00 0.00 67 1024.2
20260906115050 16 156 0.0 0.0 0.00 0.00 0.00 66 1024.3
20260906114549 16 156 0.0 0.0 0.00 0.00 0.00 65 1024.3
20260906114045 16 156 0.0 0.0 0.00 0.00 0.00 66 1024.3
20260906113544 16 156 0.0 0.0 0.00 0.00 0.00 66 1024.2
20260906113039 16 156 0.0 0.0 0.00 0.00 0.00 65 1023.9
20260906112534 16 156 0.0 0.0 0.00 0.00 0.00 64 1024.2
20260906112031 16 156 0.0 0.0 0.00 0.00 0.00 63 1024.0
20260906111530 16 156 0.0 0.0 0.00 0.00 0.00 63 1023.8
20260906111026 16 156 0.0 0.0 0.00 0.00 0.00 64 1023.9
20260906110525 16 156 0.0 0.0 0.00 0.00 0.00 64 1023.8
20260906110025 17 156 0.0 0.0 0.00 0.00 0.00 63 1023.8
20260906105520 17 156 0.0 0.0 0.00 0.00 0.00 63 1023.8
20260906105016 17 156 0.0 0.0 0.00 0.00 0.00 63 1023.7
20260906104514 17 156 0.0 0.0 0.00 0.00 0.00 64 1023.7
20260906104009 17 156 0.0 0.0 0.00 0.00 0.00 63 1023.8
20260906103507 17 156 0.0 0.0 0.00 0.00 0.00 61 1023.8
20260906103003 17 156 0.0 0.0 0.00 0.00 0.00 60 1023.8
20260906102502 17 156 0.0 0.0 0.00 0.00 0.00 63 1023.9
20260906102002 17 156 0.0 0.0 0.00 0.00 0.00 65 1023.8
20260906101457 17 156 0.0 0.0 0.00 0.00 0.00 65 1024.0
20260906100953 17 156 0.0 0.0 0.00 0.00 0.00 64 1024.3
20260906100448 17 156 0.0 0.0 0.00 0.00 0.00 63 1024.3
20260906095948 17 156 0.0 0.0 0.00 0.00 0.00 64 1024.4
20260906095443 17 156 0.0 0.0 0.00 0.00 0.00 64 1024.4
20260906094938 17 156 0.0 0.0 0.00 0.00 0.00 62 1024.5
20260906094432 17 156 0.0 0.0 0.00 0.00 0.00 64 1024.5
20260906093928 17 156 0.0 0.0 0.00 0.00 0.00 63 1024.5
20260906093424 17 156 0.0 0.0 0.00 0.00 0.00 63 1024.0
20260906092924 17 156 0.0 0.0 0.00 0.00 0.00 62 1024.4
20260906092424 17 156 0.0 0.0 0.00 0.00 0.00 61 1023.9
20260906091920 18 156 0.0 0.0 0.00 0.00 0.00 60 1024.0
20260906091415 18 156 0.0 0.0 0.00 0.00 0.00 58 1023.8
20260906090912 18 156 0.0 0.0 0.00 0.00 0.00 58 1023.8
20260906090411 19 156 0.0 0.0 0.00 0.00 0.00 57 1023.9
20260906085906 18 156 0.0 0.0 0.00 0.00 0.00 56 1023.9
20260906085406 18 156 0.0 0.0 0.00 0.00 0.00 58 1023.8
20260906084905 18 156 0.0 0.0 0.00 0.00 0.00 58 1024.0
20260906084400 18 156 0.0 0.0 0.00 0.00 0.00 59 1023.9
20260906083854 18 156 0.0 0.0 0.00 0.00 0.00 59 1023.9
20260906083350 18 156 0.0 0.0 0.00 0.00 0.00 59 1024.0
20260906082849 19 156 0.0 0.0 0.00 0.00 0.00 58 1024.0
20260906082344 19 156 0.0 0.0 0.00 0.00 0.00 57 1023.9
20260906081840 19 156 0.0 0.0 0.00 0.00 0.00 56 1024.0
20260906081336 19 156 0.0 0.0 0.00 0.00 0.00 57 1023.8
20260906080832 19 156 0.0 0.0 0.00 0.00 0.00 58 1024.0
20260906080328 19 156 0.0 1.6 0.00 0.00 0.00 58 1024.0
20260906075827 19 156 0.0 0.0 0.00 0.00 0.00 58 1024.0
20260906075327 19 156 0.0 0.0 0.00 0.00 0.00 59 1024.3
20260906074823 19 156 0.0 0.0 0.00 0.00 0.00 60 1024.4
20260906074322 19 156 0.0 0.0 0.00 0.00 0.00 61 1024.3
20260906073821 19 156 0.0 0.0 0.00 0.00 0.00 61 1024.0
20260906073321 19 156 0.0 0.0 0.00 0.00 0.00 61 1024.4
20260906072818 19 156 0.0 0.0 0.00 0.00 0.00 61 1024.4
20260906072313 18 156 0.0 0.0 0.00 0.00 0.00 62 1024.3
20260906071809 18 156 0.0 0.0 0.00 0.00 0.00 64 1024.5
20260906071304 19 156 0.0 0.0 0.00 0.00 0.00 64 1024.5
20260906070801 19 156 0.0 0.0 0.00 0.00 0.00 64 1024.4
20260906070256 18 156 0.0 0.0 0.00 0.00 0.00 65 1024.4
20260906065755 18 156 0.0 0.0 0.00 0.00 0.00 66 1024.3
20260906065251 18 156 0.0 0.0 0.00 0.00 0.00 67 1024.4
20260906064747 18 156 0.0 0.0 0.00 0.00 0.00 68 1024.3
20260906064242 18 156 0.0 0.0 0.00 0.00 0.00 70 1024.4
20260906063737 18 156 0.0 0.0 0.00 0.00 0.00 69 1024.5
20260906063233 18 156 0.0 0.0 0.00 0.00 0.00 69 1024.5
20260906062728 18 156 0.0 0.0 0.00 0.00 0.00 69 1024.5
20260906062227 18 156 0.0 0.0 0.00 0.00 0.00 70 1024.7
20260906061723 18 156 0.0 0.0 0.00 0.00 0.00 69 1024.4
20260906061219 17 156 0.0 0.0 0.00 0.00 0.00 69 1024.2
20260906060714 18 156 0.0 0.0 0.00 0.00 0.00 69 1024.2
20260906060212 18 156 0.0 0.0 0.00 0.00 0.00 68 1024.3
20260906055707 18 156 0.0 0.0 0.00 0.00 0.00 69 1024.3
20260906055202 17 156 0.0 0.0 0.00 0.00 0.00 70 1024.3
20260906054658 18 156 0.0 0.0 0.00 0.00 0.00 69 1024.3
20260906054158 18 156 0.0 0.0 0.00 0.00 0.00 69 1024.3
20260906053655 18 156 0.0 0.0 0.00 0.00 0.00 68 1023.9
20260906053150 18 156 0.0 0.0 0.00 0.00 0.00 68 1024.0
20260906052645 18 156 0.0 0.0 0.00 0.00 0.00 67 1024.2
20260906052141 18 156 0.0 0.0 0.00 0.00 0.00 67 1024.3
20260906051637 19 156 0.0 0.0 0.00 0.00 0.00 65 1024.2
20260906051137 19 156 0.0 0.0 0.00 0.00 0.00 64 1024.0
20260906050633 19 156 0.0 0.0 0.00 0.00 0.00 65 1024.2
20260906050128 19 156 0.0 0.0 0.00 0.00 0.00 64 1024.2
20260906045626 20 156 0.0 0.0 0.00 0.00 0.00 63 1024.2
20260906045121 19 156 0.0 0.0 0.00 0.00 0.00 64 1024.3
20260906044617 19 156 0.0 0.0 0.00 0.00 0.00 65 1024.3
20260906044113 19 156 0.0 0.0 0.00 0.00 0.00 64 1024.5
20260906043609 20 156 0.0 0.0 0.00 0.00 0.00 63 1024.4
20260906043104 20 156 0.0 0.0 0.00 0.00 0.00 62 1024.2
20260906042603 20 156 0.0 0.0 0.00 0.00 0.00 63 1024.5
20260906042058 20 156 0.0 0.0 0.00 0.00 0.00 63 1024.3
20260906041554 20 156 0.0 0.0 0.00 0.00 0.00 62 1024.8
20260906041048 20 156 0.0 0.0 0.00 0.00 0.00 63 1024.5
20260906040544 20 156 0.0 0.0 0.00 0.00 0.00 63 1024.0
20260906040039 20 156 0.0 0.0 0.00 0.00 0.00 64 1024.3
20260906035534 20 156 0.0 0.0 0.00 0.00 0.00 64 1024.3
20260906035030 20 156 0.0 0.0 0.00 0.00 0.00 62 1024.5
20260906034530 21 156 0.0 0.0 0.00 0.00 0.00 61 1024.5
20260906034020 21 156 0.0 0.0 0.00 0.00 0.00 58 1024.3
20260906033520 21 156 0.0 0.0 0.00 0.00 0.00 59 1024.4
20260906033016 21 156 0.0 0.0 0.00 0.00 0.00 59 1024.5
20260906032513 21 156 0.0 0.0 0.00 0.00 0.00 60 1024.5
20260906032012 21 156 0.0 0.0 0.00 0.00 0.00 60 1024.7
20260906031508 21 156 0.0 0.0 0.00 0.00 0.00 58 1024.5
20260906031003 21 156 0.0 0.0 0.00 0.00 0.00 57 1024.2
20260906030457 21 156 0.0 0.0 0.00 0.00 0.00 56 1024.0
20260906025957 21 156 0.0 0.0 0.00 0.00 0.00 55 1023.7
20260906025456 21 156 0.0 0.0 0.00 0.00 0.00 54 1023.9
20260906024955 21 156 0.0 0.0 0.00 0.00 0.00 52 1023.9
20260906024450 21 156 0.0 0.0 0.00 0.00 0.00 51 1023.6
20260906023950 21 156 0.0 0.0 0.00 0.00 0.00 49 1023.6
20260906023447 21 156 0.0 0.0 0.00 0.00 0.00 48 1023.7
20260906022947 21 156 0.0 0.0 0.00 0.00 0.00 48 1023.6
20260906022442 21 156 0.0 0.0 0.00 0.00 0.00 48 1023.4
20260906021938 21 156 0.0 0.0 0.00 0.00 0.00 47 1023.1
20260906021437 21 156 0.0 0.0 0.00 0.00 0.00 45 1022.8
20260906020932 21 156 0.0 0.0 0.00 0.00 0.00 45 1023.0
20260906020427 21 156 0.0 0.0 0.00 0.00 0.00 46 1023.0
20260906015927 21 156 0.0 0.0 0.00 0.00 0.00 47 1022.2
20260906015426 21 156 0.0 0.0 0.00 0.00 0.00 46 1022.7
20260906014926 22 156 0.0 0.0 0.00 0.00 0.00 46 1022.4
20260906014426 22 156 0.0 0.0 0.00 0.00 0.00 45 1022.5
20260906013923 23 156 0.0 0.0 0.00 0.00 0.00 42 1022.5
20260906013418 23 156 0.0 0.0 0.00 0.00 0.00 43 1022.5
20260906012914 23 156 0.0 0.0 0.00 0.00 0.00 42 1022.7
20260906012414 23 156 0.0 0.0 0.00 0.00 0.00 41 1022.2
20260906011913 24 156 0.0 0.0 0.00 0.00 0.00 41 1022.5
20260906011408 24 156 0.0 0.0 0.00 0.00 0.00 40 1022.4
20260906010909 24 156 0.0 0.0 0.00 0.00 0.00 40 1022.6
20260906010404 24 156 0.0 0.0 0.00 0.00 0.00 40 1022.2
20260906005900 24 156 0.0 0.0 0.00 0.00 0.00 41 1022.4
20260906005359 25 156 0.0 0.0 0.00 0.00 0.00 41 1022.7
20260906004859 25 156 0.0 0.0 0.00 0.00 0.00 43 1022.7
20260906004359 25 156 0.0 0.0 0.00 0.00 0.00 43 1022.6
20260906003854 25 156 0.0 0.0 0.00 0.00 0.00 42 1022.8
20260906003349 26 156 0.0 0.0 0.00 0.00 0.00 40 1022.8
20260906002845 26 156 0.0 0.0 0.00 0.00 0.00 39 1022.7
20260906002344 26 156 0.0 0.0 0.00 0.00 0.00 38 1022.7
20260906001840 27 156 0.0 0.0 0.00 0.00 0.00 38 1022.5
20260906001335 27 156 0.0 0.0 0.00 0.00 0.00 35 1022.5
20260906000830 27 156 0.0 0.0 0.00 0.00 0.00 35 1022.6
20260906000326 28 156 0.0 0.0 0.00 0.00 0.00 34 1022.2
20260905235825 28 155 0.0 0.0 0.00 0.00 0.00 33 1022.6
20260905235319 28 155 0.0 0.0 0.00 0.00 0.00 34 1022.6
20260905234815 28 155 0.0 0.0 0.00 0.00 0.00 33 1022.8
20260905234310 28 155 0.0 0.0 0.00 0.00 0.00 32 1022.6
20260905233805 30 155 0.0 0.0 0.00 0.00 0.00 32 1023.0
20260905233306 29 155 0.0 0.0 0.00 0.00 0.00 31 1022.4
20260905232804 30 155 0.0 0.0 0.00 0.00 0.00 30 1022.4
20260905232301 30 155 0.0 0.0 0.00 0.00 0.00 29 1022.6
20260905231756 30 155 0.0 0.0 0.00 0.00 0.00 31 1022.7
20260905231251 30 155 0.0 0.0 0.00 0.00 0.00 30 1022.5
20260905230748 30 155 0.0 0.0 0.00 0.00 0.00 31 1022.6
20260905230245 28 156 0.0 0.0 0.00 0.00 0.00 34 1022.6
20260905225745 28 156 0.0 0.0 0.00 0.00 0.00 34 1022.8
20260905225240 28 155 0.0 0.0 0.00 0.00 0.00 35 1022.7
20260905224739 28 155 0.0 0.0 0.00 0.00 0.00 34 1022.7
20260905224235 29 155 0.0 0.0 0.00 0.00 0.00 33 1022.6
20260905223731 29 155 0.0 0.0 0.00 0.00 0.00 34 1022.7
20260905223228 28 155 0.0 0.0 0.00 0.00 0.00 34 1023.1
20260905222723 28 155 0.0 0.0 0.00 0.00 0.00 33 1022.8
20260905222222 28 155 0.0 0.0 0.00 0.00 0.00 32 1022.6
20260905221718 29 155 0.0 0.0 0.00 0.00 0.00 32 1022.8
20260905221215 30 155 0.0 0.0 0.00 0.00 0.00 31 1022.8
20260905220711 30 155 0.0 0.0 0.00 0.00 0.00 31 1022.7
20260905220206 30 155 0.0 0.0 0.00 0.00 0.00 34 1022.8
20260905215706 28 155 0.0 0.0 0.00 0.00 0.00 36 1023.0
20260905215201 27 155 0.0 0.0 0.00 0.00 0.00 37 1023.1